FW1093 Weather Reports


time (UTC)temp
C
wind
direction
speed
KPH
gust
KPH
rain 1hr
cm
rain 24hr
cm
rain mn
cm
humidity
%
barometer
mb
20260905004314 18 271 0.0 0.0 0.00 1.85 1.85 91 1011.5
20260905003323 18 271 0.0 0.0 0.00 1.85 1.85 90 1011.5
20260905002312 18 271 0.0 0.0 0.00 1.85 1.85 90 1011.4
20260905001320 19 271 0.0 0.0 0.00 1.85 1.85 90 1011.4
20260905000328 19 271 0.0 0.0 0.00 1.85 1.85 89 1011.2
20260904235318 20 271 0.0 0.0 0.00 1.85 1.85 88 1011.1
20260904234327 20 271 0.0 0.0 0.00 1.85 1.85 87 1011.0
20260904233334 20 271 0.0 0.0 0.00 1.85 1.85 86 1011.0
20260904232320 21 271 0.0 0.0 0.00 1.85 1.85 85 1011.0
20260904231328 22 271 0.0 0.0 0.00 1.85 1.85 84 1011.0
20260904230337 22 271 0.0 0.0 0.00 1.85 1.85 83 1011.0
20260904225323 23 271 0.0 0.0 0.00 1.85 1.85 80 1011.0
20260904224312 24 271 0.0 0.0 0.00 1.85 1.85 78 1011.0
20260904223324 25 271 0.0 0.0 0.00 1.85 1.85 77 1011.1
20260904222331 25 271 0.0 0.0 0.00 1.85 1.85 73 1011.0
20260904221317 25 271 0.0 0.0 0.00 1.85 1.85 71 1011.0
20260904220335 25 316 0.0 1.6 0.00 1.85 1.85 69 1011.0
20260904215323 26 11 0.0 1.6 0.00 1.85 1.85 66 1011.0
20260904214331 26 341 0.0 3.2 0.00 1.85 1.85 69 1011.0
20260904213338 26 11 1.6 3.2 0.00 1.85 1.85 60 1011.0
20260904212350 26 8 1.6 6.4 0.00 1.85 1.85 60 1011.0
20260904211337 26 334 0.0 3.2 0.00 1.85 1.85 62 1010.9
20260904210326 26 322 0.0 4.8 0.00 1.85 1.85 61 1011.1
20260904205336 26 14 1.6 3.2 0.00 1.85 1.85 59 1011.1
20260904204324 27 244 0.0 4.8 0.00 1.85 1.85 63 1011.2
20260904203329 27 278 0.0 3.2 0.00 1.85 1.85 60 1011.0
20260904202317 27 300 0.0 8.0 0.00 1.85 1.85 60 1011.1
20260904201330 26 8 0.0 4.8 0.00 1.85 1.85 61 1011.0
20260904200317 26 354 1.6 9.7 0.00 1.85 1.85 61 1011.1
20260904195334 26 285 1.6 8.0 0.00 1.85 1.85 60 1011.0
20260904194330 26 288 1.6 8.0 0.00 1.85 1.85 62 1011.1
20260904193315 26 21 3.2 6.4 0.00 1.85 1.85 60 1011.1
20260904192324 25 288 3.2 6.4 0.00 1.85 1.85 63 1011.1
20260904191313 25 274 0.0 4.8 0.00 1.85 1.85 66 1011.3
20260904190321 24 273 0.0 1.6 0.00 1.85 1.85 72 1011.5
20260904185314 24 312 0.0 0.0 0.00 1.85 1.85 74 1011.4
20260904184323 25 316 0.0 1.6 0.00 1.85 1.85 73 1011.5
20260904183312 25 285 0.0 4.8 0.00 1.85 1.85 64 1011.6
20260904182347 26 211 1.6 6.4 0.00 1.85 1.85 63 1011.5
20260904181314 26 319 0.0 8.0 0.00 1.85 1.85 64 1011.4
20260904180329 25 327 1.6 8.0 0.00 1.85 1.85 65 1011.4
20260904175316 25 259 0.0 4.8 0.00 1.85 1.85 65 1011.6
20260904174352 26 257 1.6 6.4 0.00 1.85 1.85 62 1011.4
20260904173319 26 283 1.6 6.4 0.00 1.85 1.85 62 1011.3
20260904172335 26 255 0.0 4.8 0.00 1.85 1.85 63 1011.3
20260904171324 25 278 0.0 4.8 0.00 1.85 1.85 65 1011.3
20260904170314 25 294 3.2 8.0 0.00 1.85 1.85 63 1011.5
20260904165322 25 316 1.6 11.3 0.00 1.85 1.85 68 1011.8
20260904164338 25 236 1.6 6.4 0.00 1.85 1.85 65 1011.9
20260904163328 25 204 1.6 4.8 0.00 1.85 1.85 65 1012.0
20260904162316 25 198 0.0 6.4 0.00 1.85 1.85 74 1011.8
20260904161332 25 63 1.6 8.0 0.00 1.85 1.85 68 1012.0
20260904160325 24 356 3.2 8.0 0.00 1.85 1.85 68 1012.0
20260904155322 23 357 3.2 11.3 0.00 1.85 1.85 72 1012.2
20260904154313 23 255 1.6 6.4 0.00 1.85 1.85 78 1012.2
20260904153333 23 240 0.0 4.8 0.00 1.85 1.85 77 1012.4
20260904152326 23 273 0.0 3.2 0.00 1.85 1.85 81 1012.4
20260904151317 23 160 0.0 6.4 0.00 1.85 1.85 81 1012.5
20260904150327 23 289 1.6 8.0 0.00 1.85 1.85 78 1012.5
20260904145320 22 288 1.6 6.4 0.00 1.85 1.85 85 1012.4
20260904144319 22 324 0.0 6.4 0.00 1.85 1.85 88 1012.4
20260904143330 22 288 0.0 4.8 0.00 1.85 1.85 88 1012.4
20260904142351 22 34 1.6 6.4 0.00 1.85 1.85 90 1012.5
20260904141324 22 269 0.0 3.2 0.00 1.85 1.85 92 1012.4
20260904140316 21 266 0.0 3.2 0.00 1.85 1.85 93 1012.2
20260904135358 21 309 0.0 3.2 0.00 1.85 1.85 95 1012.3
20260904134329 21 271 1.6 4.8 0.00 1.85 1.85 98 1012.2
20260904133321 21 284 0.0 1.6 0.00 1.85 1.85 98 1012.3
20260904132317 20 323 0.0 4.8 0.00 1.85 1.85 98 1012.3
20260904131336 20 360 0.0 1.6 0.00 1.85 1.85 98 1012.1
20260904130327 20 276 0.0 0.0 0.00 1.85 1.85 98 1012.2
20260904125322 20 276 0.0 0.0 0.00 1.85 1.85 98 1012.2
20260904124315 20 276 0.0 0.0 0.00 1.85 1.85 98 1012.0
20260904123327 20 276 0.0 0.0 0.00 1.85 1.85 98 1012.0
20260904122323 20 276 0.0 0.0 0.00 1.85 1.85 98 1012.0
20260904121312 20 276 0.0 0.0 0.00 1.85 1.85 98 1012.0
20260904120330 20 276 0.0 0.0 0.00 1.85 1.85 98 1012.1
20260904115324 20 276 0.0 0.0 0.00 1.85 1.85 98 1012.2
20260904114318 20 276 0.0 0.0 0.00 1.85 1.85 98 1012.1
20260904113340 20 276 0.0 0.0 0.00 1.85 1.85 98 1011.8
20260904112340 20 276 0.0 0.0 0.00 1.85 1.85 98 1011.7
20260904111342 20 276 0.0 0.0 0.00 1.85 1.85 98 1011.6
20260904110316 20 276 0.0 0.0 0.00 1.85 1.85 97 1011.5
20260904105311 20 276 0.0 0.0 0.00 1.85 1.85 97 1011.5
20260904104329 20 276 0.0 0.0 0.00 1.85 1.85 97 1011.4
20260904103325 20 276 0.0 0.0 0.00 1.85 1.85 97 1011.3
20260904102334 20 276 0.0 0.0 0.00 1.85 1.85 97 1011.3
20260904101328 20 276 0.0 0.0 0.00 1.85 1.85 97 1011.2
20260904100318 20 276 0.0 0.0 0.00 1.85 1.85 97 1011.3
20260904095314 20 276 0.0 0.0 0.00 1.85 1.85 97 1011.1
20260904094335 20 276 0.0 1.6 0.00 1.85 1.85 98 1011.1
20260904093329 20 276 0.0 0.0 0.00 1.85 1.85 97 1010.8
20260904092323 20 276 0.0 1.6 0.05 1.85 1.85 97 1011.1
20260904091337 20 276 0.0 0.0 0.10 1.85 1.85 97 1011.0
20260904090350 20 276 0.0 0.0 0.20 1.85 1.85 97 1010.8
20260904085352 20 276 0.0 0.0 1.19 1.85 1.85 97 1010.7
20260904084325 20 276 0.0 0.0 1.80 1.85 1.85 97 1010.2
20260904083345 20 276 0.0 0.0 1.83 1.85 1.85 97 1010.2
20260904082315 20 276 0.0 0.0 1.80 1.80 1.80 97 1010.4
20260904081335 20 276 0.0 1.6 1.75 1.75 1.75 97 1010.9
20260904080331 20 37 1.6 9.7 1.57 1.57 1.57 97 1011.0
20260904075351 20 321 0.0 6.4 0.61 0.61 0.61 97 1011.4
20260904074326 21 308 0.0 0.0 0.05 0.05 0.05 97 1011.0
20260904073318 21 308 0.0 0.0 0.03 0.03 0.03 97 1010.9
20260904072337 21 308 0.0 0.0 0.00 0.00 0.00 97 1011.0
20260904071332 21 308 0.0 0.0 0.00 0.00 0.00 97 1010.9
20260904070334 21 308 0.0 0.0 0.00 0.00 0.00 97 1011.2
20260904065329 21 308 0.0 0.0 0.00 0.05 0.00 97 1011.2
20260904064321 21 308 0.0 0.0 0.00 0.05 0.00 97 1011.2
20260904063314 21 307 0.0 0.0 0.00 0.05 0.00 97 1011.5
20260904062335 21 309 0.0 0.0 0.00 0.05 0.00 97 1011.3
20260904061326 20 309 0.0 0.0 0.00 0.05 0.00 97 1011.4
20260904060320 20 309 0.0 0.0 0.00 0.05 0.00 97 1011.5
20260904055358 20 309 0.0 0.0 0.00 0.84 0.00 97 1011.7
20260904054328 20 309 0.0 0.0 0.00 0.84 0.00 97 1011.7
20260904053321 20 309 0.0 0.0 0.00 0.84 0.00 97 1011.8
20260904052334 20 309 0.0 0.0 0.00 0.84 0.00 97 1011.8
20260904051327 20 309 0.0 0.0 0.00 0.84 0.00 97 1012.0
20260904050323 20 309 0.0 0.0 0.00 0.84 0.00 97 1012.1
20260904045313 21 309 0.0 0.0 0.00 0.84 0.00 97 1012.1
20260904044326 21 309 0.0 0.0 0.00 0.84 0.00 97 1012.1
20260904043345 21 309 0.0 0.0 0.00 0.84 0.00 97 1012.3
20260904042343 21 309 0.0 0.0 0.00 0.84 0.00 97 1012.4
20260904041314 21 309 0.0 0.0 0.00 0.84 0.00 97 1012.5
20260904040355 21 309 0.0 0.0 0.00 0.84 0.00 97 1012.5
20260904035324 21 309 0.0 0.0 0.00 0.84 0.84 97 1012.6
20260904034315 21 309 0.0 0.0 0.00 0.84 0.84 97 1012.7
20260904033357 21 309 0.0 0.0 0.00 0.84 0.84 97 1012.5
20260904032334 21 309 0.0 0.0 0.00 0.84 0.84 97 1012.9
20260904031332 21 309 0.0 0.0 0.00 0.84 0.84 97 1013.0
20260904030326 21 309 0.0 0.0 0.00 0.84 0.84 96 1013.1
20260904025348 21 309 0.0 0.0 0.00 0.84 0.84 96 1013.1
20260904024349 21 309 0.0 0.0 0.00 0.84 0.84 96 1012.8
20260904023324 21 309 0.0 0.0 0.00 0.84 0.84 96 1013.2
20260904022320 21 309 0.0 0.0 0.00 0.84 0.84 96 1013.2
20260904021344 21 309 0.0 0.0 0.00 0.84 0.84 96 1013.2
20260904020345 21 309 0.0 0.0 0.00 0.84 0.84 96 1013.0
20260904015324 21 309 0.0 0.0 0.00 0.84 0.84 96 1013.2
20260904014323 21 309 0.0 0.0 0.00 0.84 0.84 96 1013.5
20260904013315 21 309 0.0 0.0 0.00 0.84 0.84 96 1013.6
20260904012335 21 309 0.0 0.0 0.00 0.84 0.84 96 1013.8
20260904011326 21 309 0.0 0.0 0.00 0.84 0.84 96 1013.7
20260904010349 21 309 0.0 0.0 0.00 0.84 0.84 95 1013.4
20260904005321 22 309 0.0 0.0 0.00 0.84 0.84 95 1013.3